Regional Weather Roundup
Issued by NWS

Home | Current Version | Previous Version | Text Only | Print | Product List | Glossary Off
Versions: 1 2 3 4 5 6 7 8 9 10 11 12 13 14 15 16 17 18 19 20 21 22 23 24 25 26 27 28 29 30 31 32 33 34 35 36 37 38 39 40 41 42 43 44 45 46 47 48 49 50

000
ASUS43 KMKX 040511
RWRWI

WISCONSIN REGIONAL WEATHER ROUNDUP
NATIONAL WEATHER SERVICE MILWAUKEE/SULLIVAN WI
1200 AM CDT SAT JUL 04 2015

NOTE: "FAIR" INDICATES FEW OR NO CLOUDS BELOW 12,000 FEET WITH NO
SIGNIFICANT WEATHER AND/OR OBSTRUCTIONS TO VISIBILITY.

WIZ001-002-006>008-014>016-023>028-040600-
NORTHWEST WISCONSIN

CITY           SKY/WX    TMP DP  RH WIND       PRES   REMARKS
SUPERIOR ARPT  CLEAR     57  56  97 S5        29.90R
ASHLAND        CLEAR     62  62 100 W3        29.90R FOG
HAYWARD        PTCLDY    60  58  92 CALM      29.92S FOG
SIREN          PTCLDY    64  61  91 CALM      29.92R
CUMBERLAND     MOCLDY    64  61  88 CALM      29.93S
RICE LAKE      CLOUDY    66  64  90 CALM      29.93S
CHETEK         CLOUDY    67  61  80 CALM      29.92S
LADYSMITH      PTCLDY    62  59  89 CALM      29.93S
EAU CLAIRE     MOCLDY    66  58  75 SW5       29.91S
MENOMONIE      PTCLDY    63  59  86 CALM      29.92S
NEW RICHMOND   CLEAR     63  61  93 S3        29.93S
OSCEOLA        CLEAR     63  63 100 CALM      29.95R
$$

WIZ003>005-009-010-017-018-040600-
NORTH CENTRAL WISCONSIN

CITY           SKY/WX    TMP DP  RH WIND       PRES   REMARKS
MANITOWISH WTR FOG       55  55 100 CALM      29.93R VSB 1/4
ARBOR VITAE    PTCLDY    60  58  94 CALM      29.93S
WOODRUFF       PTCLDY    60  58  94 CALM      29.93S
RHINELANDER    MOCLDY    59  57  93 W7        29.95R
EAGLE RIVER    FOG       57  57 100 CALM      29.93R VSB 3/4
LAND O LAKES   PTCLDY    56  54  94 CALM      29.94R
PHILLIPS       MOCLDY    64  59  85 CALM      29.93S
TOMAHAWK       RAIN      61  59  94 W8G16     29.94S
MEDFORD        CLEAR     59  57  92 CALM      29.93F
MERRILL        LGT RAIN  64  60  89 N3        29.94S
$$

WIZ029-030-035-036-043>047-040600-
CENTRAL WISCONSIN

CITY           SKY/WX    TMP DP  RH WIND       PRES   REMARKS
WAUSAU         CLOUDY    67  57  70 CALM      29.91S
MOSINEE        PTCLDY    63  57  82 W6        29.94S
MARSHFIELD     PTCLDY    61  55  81 SW3       29.93F
STEVENS POINT  PTCLDY    65  56  71 W3        29.94R
WAUPACA        MOCLDY    62  60  94 CALM      29.93S
WAUTOMA        PTCLDY    60  60 100 CALM      29.94R
WISC RAPIDS    PTCLDY    60  56  86 CALM      29.94S
CAMP DOUGLAS   PTCLDY    56  56 100 CALM      29.93S
$$

WIZ011>013-019>022-031-037>040-048>050-040600-
NORTHEAST WISCONSIN

CITY           SKY/WX    TMP DP  RH WIND       PRES   REMARKS
ANTIGO         MOCLDY    58  56  92 CALM      29.93S
SHAWANO        CLOUDY    66  59  78 CALM      29.91S
OCONTO         PTCLDY    57  57 100 CALM      29.89S
STURGEON BAY   CLEAR     63  52  67 S7        29.92S
GREEN BAY      PTCLDY    64  58  80 S3        29.91S
MANITOWOC      MOCLDY    62  53  72 MISG      29.92S
APPLETON       PTCLDY    64  55  72 SW7       29.93S
CLINTONVILLE   MOCLDY    61  55  82 SW5       29.91S
OSHKOSH        CLEAR     65  56  72 SW5       29.92R
$$

WIZ032>034-041-042-053>061-040600-
SOUTHWEST WISCONSIN

CITY           SKY/WX    TMP DP  RH WIND       PRES   REMARKS
LA CROSSE      CLEAR     64  61  90 SE5       29.93R
SPARTA         PTCLDY    57  56  94 CALM      29.95S
VIROQUA        CLEAR     62  58  88 CALM      29.96S
BOSCOBEL       CLEAR     58  56  93 CALM      29.96R FOG
PRAIRIE DU CHI CLEAR     60  57  91 CALM      29.95S
PLATTEVILLE    CLEAR     63  55  76 S3        29.97S
$$

WIZ056-057-062-063-064-067-068-040600-
SOUTH CENTRAL WISCONSIN

CITY           SKY/WX    TMP DP  RH WIND       PRES   REMARKS
REEDSBURG      PTCLDY    59  58  97 CALM      29.94S
BARABOO/DELLS  PTCLDY    58  55  91 S5        29.95S
LONE ROCK      CLEAR     58  55  90 CALM      29.96R
MINERAL POINT  CLEAR     63  52  67 SW3       29.97S
MADISON        CLEAR     61  54  77 CALM      29.95R
MIDDLETON      CLEAR     59  58  96 CALM      29.96S
WATERTOWN      CLEAR     57  57 100 CALM      29.94S
MONROE         CLEAR     64  52  63 W7        29.97R
JANESVILLE     CLEAR     61  59  94 CALM      29.96R FOG
$$

WIZ051-052-058>065-066-070>072-040600-
SOUTHEAST WISCONSIN

CITY           SKY/WX    TMP DP  RH WIND       PRES   REMARKS
MILWAUKEE      MOCLDY    63  52  67 S3        29.95R
WAUKESHA       CLEAR     61  52  72 S6        29.96S
MILWAUKEE/TIMM CLEAR     61  50  67 CALM      29.96S
RACINE         CLEAR     59  52  77 CALM      29.97R
BURLINGTON     CLEAR     54  53  97 CALM      29.96R
KENOSHA        CLEAR     57  53  86 CALM      29.96R
FOND DU LAC    CLEAR     64  56  75 SW7       29.93R
SHEBOYGAN      CLEAR     58  53  84 SW5       29.93S
WEST BEND      CLEAR     57  52  82 CALM      29.95S
JUNEAU         CLEAR     61  54  76 CALM      29.96R
$$

LSZ147-162-040600-
LAKE SUPERIOR

STATION/POSITION TIME  TEMP    WIND        PRES    WAVE
                       AIR SEA DIR/SP/G            HT/PER
                 (UTC) (F)     (DEG/KT/KT) (MB)    (FT/S)
W MID LAKE BUOY  0450   43 38   40/  4/  4 1013.1R   1
DEVILS ISLAND    0500   62      50/  6/  6 1012.8R
SAXON HARBOR     0400   64        CALM     1011.5R
$$

LMZ867-665-643>646-040600-
LAKE MICHIGAN

STATION/POSITION TIME  TEMP    WIND        PRES    WAVE
                       AIR SEA DIR/SP/G            HT/PER
                 (UTC) (F)     (DEG/KT/KT) (MB)    (FT/S)
CHAMBERS ISLAND  0400   66     180/  5/  8 1012.2R
S GREEN BAY BUOY 0500   70 69  210/  8/ 10 1013.7
N MID LAKE BUOY  0450   49 43  200/ 10/ 10 1012.3R   2/ 4
NORTHPORT PIER   0400   63     190/  3/  9 1011.9S
SISTER BAY       0414   66     200/  9/ 10   N/A
ALGOMA LAKESHORE 0425             CALM       N/A
KEWAUNEE LAKESHO 0400   65     270/  2/  5 1012.1S
SHEBOYGAN LAKESH 0500   62     210/  9/  9 1013.7R
PORT WASHINGTON  0400   62     250/  3/  3 1014.2S
ATWATER BUOY     0500   64 61  200/  6/  6 1015.3R
MILWAUKEE LAKESH 0400   65     200/  4/  5   N/A
KENOSHA   LAKESH 0500   63     220/  3/  5 1014.2S
$$

TC  - TEMPERATURE IN CELSIUS
VSB - VISIBILITY IN STATUTE MILES
WCI - WIND CHILL INDEX
HX  - HEAT INDEX



USA.gov is the U.S. government's official web portal to all federal, state and local government web resources and services.